OBJECT AC (43784 NORAD) Tracking and Keplerian Element Data

This shows tracking and keplerian element data for the satellite.

Feedback or suggestion? Click here.




ElementValue
Catalog43784
NameOBJECT AC
Epoch Orbit568
Epoch Day10.76799455
Epoch Year2019
RAAN84.5298
Inclination97.7607
Eccentricity0.0016262
Argument of Perigee135.7344
Mean Anonmoly224.5181
Mean Motion14.95026078
Decay Rate3.8E-07
L11 43784U 18099AC 19010.76799455 .00000038 00000-0 87147-5 0 9999
L22 43784 97.7607 84.5298 0016262 135.7344 224.5181 14.95026078 5688

Live tracking and technical data element details for OBJECT AC (NORAD 43784). OBJECT AC can be tracked NOW for your location showing map with azimuth and elevation plus other details from your city location.

Track the satellite on the map from your city or location and see movement details for azimuth, elevation, latitude, longitude, range, height, and movement on the map or in text.







IsCatalogInMostPopularTable: catalog: 43784, numindb: 19
Update: records affected: 1



GetName: 43784 OBJECT AC

Hit Count: updated at: Thu, 17 Jan 2019 14:48:07 GMT